Wetterdaten: Mittwoch, 30.12.2015
Datum Zeit Temp. A. Feuchte A. Luftdruck Regen Wind Richtung Richtung Sonnenschein ET UV Solar Taupunkt Windchill Windben Empfang
30.12.2015 00:00 1,6 C 98 % 1033,0 hPa 0,0 l/m 2,4 km/h (1 Bft) O-NO 71 0 min 0,000 mm 0,0 UV-I 0 W/m 1,3 C 1,6 C 6,4 km/h (2 Bft) 99,17 %
30.12.2015 00:05 1,3 C 97 % 1032,9 hPa 0,0 l/m 1,2 km/h (1 Bft) O-NO 71 0 min 0,000 mm 0,0 UV-I 0 W/m 0,9 C 1,3 C 3,2 km/h (1 Bft) 96,49 %
30.12.2015 00:10 1,2 C 97 % 1032,9 hPa 0,0 l/m 1,4 km/h (1 Bft) O-NO 71 0 min 0,000 mm 0,0 UV-I 0 W/m 0,8 C 1,2 C 3,2 km/h (1 Bft) 98,21 %
30.12.2015 00:15 1,2 C 98 % 1032,9 hPa 0,0 l/m 1,2 km/h (1 Bft) O-NO 71 0 min 0,000 mm 0,0 UV-I 0 W/m 0,9 C 1,2 C 3,2 km/h (1 Bft) 97,62 %
30.12.2015 00:20 1,2 C 98 % 1032,8 hPa 0,0 l/m 1,1 km/h (1 Bft) O-NO 71 0 min 0,000 mm 0,0 UV-I 0 W/m 0,9 C 1,2 C 1,6 km/h (1 Bft) 96,61 %
30.12.2015 00:25 1,2 C 98 % 1032,9 hPa 0,0 l/m 2,1 km/h (1 Bft) O-NO 72 0 min 0,000 mm 0,0 UV-I 0 W/m 0,9 C 1,2 C 3,2 km/h (1 Bft) 95,37 %
30.12.2015 00:30 1,2 C 98 % 1032,9 hPa 0,0 l/m 2,3 km/h (1 Bft) S-SO 150 0 min 0,000 mm 0,0 UV-I 0 W/m 0,9 C 1,2 C 4,8 km/h (1 Bft) 97,52 %
30.12.2015 00:35 1,2 C 98 % 1032,9 hPa 0,0 l/m 2,1 km/h (1 Bft) S-SO 150 0 min 0,000 mm 0,0 UV-I 0 W/m 0,9 C 1,2 C 3,2 km/h (1 Bft) 97,32 %
30.12.2015 00:40 1,2 C 98 % 1032,9 hPa 0,0 l/m 1,3 km/h (1 Bft) S-SO 150 0 min 0,000 mm 0,0 UV-I 0 W/m 0,9 C 1,2 C 3,2 km/h (1 Bft) 98,29 %
30.12.2015 00:45 1,2 C 98 % 1032,9 hPa 0,0 l/m 0,0 km/h (0 Bft) S-SO 150 0 min 0,000 mm 0,0 UV-I 0 W/m 0,9 C 1,2 C 1,6 km/h (1 Bft) 99,17 %
30.12.2015 00:50 1,2 C 98 % 1033,1 hPa 0,0 l/m 0,1 km/h (0 Bft) S-SO 150 0 min 0,000 mm 0,0 UV-I 0 W/m 0,9 C 1,2 C 1,6 km/h (1 Bft) 100,00 %
30.12.2015 00:55 1,2 C 98 % 1033,1 hPa 0,0 l/m 0,3 km/h (0 Bft) S-SO 150 0 min 0,000 mm 0,0 UV-I 0 W/m 0,9 C 1,2 C 1,6 km/h (1 Bft) 99,21 %
30.12.2015 01:00 1,2 C 98 % 1033,0 hPa 0,0 l/m 1,1 km/h (1 Bft) S-SO 150 0 min 0,000 mm 0,0 UV-I 0 W/m 0,9 C 1,2 C 3,2 km/h (1 Bft) 100,00 %
30.12.2015 01:05 1,3 C 98 % 1033,0 hPa 0,0 l/m 0,3 km/h (0 Bft) S-SO 150 0 min 0,000 mm 0,0 UV-I 0 W/m 1,0 C 1,3 C 1,6 km/h (1 Bft) 100,00 %
30.12.2015 01:10 1,4 C 98 % 1033,0 hPa 0,0 l/m 0,5 km/h (0 Bft) S-SO 150 0 min 0,000 mm 0,0 UV-I 0 W/m 1,1 C 1,4 C 1,6 km/h (1 Bft) 100,00 %
30.12.2015 01:15 1,5 C 98 % 1033,0 hPa 0,0 l/m 1,4 km/h (1 Bft) S-SO 161 0 min 0,000 mm 0,0 UV-I 0 W/m 1,2 C 1,5 C 3,2 km/h (1 Bft) 100,00 %
30.12.2015 01:20 1,6 C 98 % 1033,0 hPa 0,0 l/m 3,3 km/h (1 Bft) S-SO 151 0 min 0,000 mm 0,0 UV-I 0 W/m 1,3 C 1,6 C 6,4 km/h (2 Bft) 99,15 %
30.12.2015 01:25 1,6 C 98 % 1033,0 hPa 0,0 l/m 3,7 km/h (1 Bft) SO 127 0 min 0,000 mm 0,0 UV-I 0 W/m 1,3 C 1,6 C 8,0 km/h (2 Bft) 100,00 %
30.12.2015 01:30 1,6 C 98 % 1033,1 hPa 0,0 l/m 1,4 km/h (1 Bft) SO 142 0 min 0,000 mm 0,0 UV-I 0 W/m 1,3 C 1,6 C 6,4 km/h (2 Bft) 99,21 %
30.12.2015 01:35 1,5 C 98 % 1033,0 hPa 0,0 l/m 0,2 km/h (0 Bft) SO 142 0 min 0,000 mm 0,0 UV-I 0 W/m 1,2 C 1,5 C 1,6 km/h (1 Bft) 99,11 %
30.12.2015 01:40 1,4 C 98 % 1033,0 hPa 0,0 l/m 0,5 km/h (0 Bft) SO 142 0 min 0,000 mm 0,0 UV-I 0 W/m 1,1 C 1,4 C 1,6 km/h (1 Bft) 99,19 %
30.12.2015 01:45 1,5 C 98 % 1033,0 hPa 0,0 l/m 0,0 km/h (0 Bft) SO 142 0 min 0,000 mm 0,0 UV-I 0 W/m 1,2 C 1,5 C 1,6 km/h (1 Bft) 98,25 %
30.12.2015 01:50 1,5 C 98 % 1033,0 hPa 0,0 l/m 0,0 km/h (0 Bft) SO 142 0 min 0,000 mm 0,0 UV-I 0 W/m 1,2 C 1,5 C 1,6 km/h (1 Bft) 99,06 %
30.12.2015 01:55 1,6 C 98 % 1033,0 hPa 0,0 l/m 0,2 km/h (0 Bft) SO 142 0 min 0,000 mm 0,0 UV-I 0 W/m 1,3 C 1,6 C 1,6 km/h (1 Bft) 100,00 %
30.12.2015 02:00 1,6 C 98 % 1032,8 hPa 0,0 l/m 0,2 km/h (0 Bft) SO 142 0 min 0,000 mm 0,0 UV-I 0 W/m 1,3 C 1,6 C 1,6 km/h (1 Bft) 100,00 %
30.12.2015 02:05 1,6 C 98 % 1032,9 hPa 0,0 l/m 0,4 km/h (0 Bft) SO 142 0 min 0,000 mm 0,0 UV-I 0 W/m 1,3 C 1,6 C 1,6 km/h (1 Bft) 99,15 %
30.12.2015 02:10 1,6 C 98 % 1032,9 hPa 0,0 l/m 0,5 km/h (0 Bft) SO 142 0 min 0,000 mm 0,0 UV-I 0 W/m 1,3 C 1,6 C 1,6 km/h (1 Bft) 96,61 %
30.12.2015 02:15 1,5 C 98 % 1032,8 hPa 0,0 l/m 1,1 km/h (1 Bft) SO 142 0 min 0,000 mm 0,0 UV-I 0 W/m 1,2 C 1,5 C 3,2 km/h (1 Bft) 96,49 %
30.12.2015 02:20 1,5 C 98 % 1032,9 hPa 0,0 l/m 0,7 km/h (0 Bft) SO 142 0 min 0,000 mm 0,0 UV-I 0 W/m 1,2 C 1,5 C 3,2 km/h (1 Bft) 97,39 %
30.12.2015 02:25 1,5 C 98 % 1032,9 hPa 0,0 l/m 2,7 km/h (1 Bft) SO 126 0 min 0,000 mm 0,0 UV-I 0 W/m 1,2 C 1,5 C 6,4 km/h (2 Bft) 96,75 %
30.12.2015 02:30 1,4 C 98 % 1033,0 hPa 0,0 l/m 3,0 km/h (1 Bft) SO 126 0 min 0,000 mm 0,0 UV-I 0 W/m 1,1 C 1,4 C 4,8 km/h (1 Bft) 98,26 %
30.12.2015 02:35 1,4 C 98 % 1033,0 hPa 0,0 l/m 1,5 km/h (1 Bft) SO 126 0 min 0,000 mm 0,0 UV-I 0 W/m 1,1 C 1,4 C 4,8 km/h (1 Bft) 97,52 %
30.12.2015 02:40 1,4 C 98 % 1033,0 hPa 0,0 l/m 1,1 km/h (1 Bft) SO 126 0 min 0,000 mm 0,0 UV-I 0 W/m 1,1 C 1,4 C 3,2 km/h (1 Bft) 98,20 %
30.12.2015 02:45 1,4 C 98 % 1032,9 hPa 0,0 l/m 1,0 km/h (0 Bft) SO 126 0 min 0,000 mm 0,0 UV-I 0 W/m 1,1 C 1,4 C 3,2 km/h (1 Bft) 100,00 %
30.12.2015 02:50 1,4 C 98 % 1032,8 hPa 0,0 l/m 0,1 km/h (0 Bft) SO 126 0 min 0,000 mm 0,0 UV-I 0 W/m 1,1 C 1,4 C 1,6 km/h (1 Bft) 98,26 %
30.12.2015 02:55 1,4 C 98 % 1032,8 hPa 0,0 l/m 0,5 km/h (0 Bft) SO 126 0 min 0,000 mm 0,0 UV-I 0 W/m 1,1 C 1,4 C 1,6 km/h (1 Bft) 97,58 %
30.12.2015 03:00 1,4 C 98 % 1032,7 hPa 0,0 l/m 1,1 km/h (1 Bft) SO 126 0 min 0,000 mm 0,0 UV-I 0 W/m 1,1 C 1,4 C 3,2 km/h (1 Bft) 98,15 %
30.12.2015 03:05 1,4 C 98 % 1032,8 hPa 0,0 l/m 2,4 km/h (1 Bft) O-SO 119 0 min 0,000 mm 0,0 UV-I 0 W/m 1,1 C 1,4 C 4,8 km/h (1 Bft) 100,00 %
30.12.2015 03:10 1,4 C 98 % 1032,7 hPa 0,0 l/m 2,0 km/h (1 Bft) O-SO 119 0 min 0,000 mm 0,0 UV-I 0 W/m 1,1 C 1,4 C 4,8 km/h (1 Bft) 99,15 %
30.12.2015 03:15 1,3 C 98 % 1032,7 hPa 0,0 l/m 1,0 km/h (0 Bft) O-SO 119 0 min 0,000 mm 0,0 UV-I 0 W/m 1,0 C 1,3 C 1,6 km/h (1 Bft) 100,00 %
30.12.2015 03:20 1,3 C 98 % 1032,7 hPa 0,0 l/m 2,5 km/h (1 Bft) O-SO 119 0 min 0,000 mm 0,0 UV-I 0 W/m 1,0 C 1,3 C 3,2 km/h (1 Bft) 98,29 %
30.12.2015 03:25 1,3 C 98 % 1032,8 hPa 0,0 l/m 2,2 km/h (1 Bft) O-SO 118 0 min 0,000 mm 0,0 UV-I 0 W/m 1,0 C 1,3 C 4,8 km/h (1 Bft) 100,00 %
30.12.2015 03:30 1,3 C 98 % 1032,8 hPa 0,0 l/m 2,3 km/h (1 Bft) O-SO 115 0 min 0,000 mm 0,0 UV-I 0 W/m 1,0 C 1,3 C 4,8 km/h (1 Bft) 100,00 %
30.12.2015 03:35 1,4 C 98 % 1032,7 hPa 0,0 l/m 4,1 km/h (1 Bft) O-NO 61 0 min 0,000 mm 0,0 UV-I 0 W/m 1,1 C 1,4 C 6,4 km/h (2 Bft) 99,12 %
30.12.2015 03:40 1,4 C 98 % 1032,6 hPa 0,0 l/m 4,9 km/h (1 Bft) O 82 0 min 0,000 mm 0,0 UV-I 0 W/m 1,1 C 1,4 C 8,0 km/h (2 Bft) 99,11 %
30.12.2015 03:45 1,3 C 98 % 1032,7 hPa 0,0 l/m 7,8 km/h (2 Bft) O-NO 62 0 min 0,000 mm 0,0 UV-I 0 W/m 1,0 C -0,1 C 12,9 km/h (3 Bft) 100,00 %
30.12.2015 03:50 1,3 C 98 % 1032,6 hPa 0,0 l/m 6,0 km/h (2 Bft) O-NO 75 0 min 0,000 mm 0,0 UV-I 0 W/m 1,0 C 1,3 C 8,0 km/h (2 Bft) 98,21 %
30.12.2015 03:55 1,3 C 98 % 1032,6 hPa 0,0 l/m 4,5 km/h (1 Bft) O 101 0 min 0,000 mm 0,0 UV-I 0 W/m 1,0 C 1,3 C 8,0 km/h (2 Bft) 97,39 %
30.12.2015 04:00 1,3 C 98 % 1032,6 hPa 0,0 l/m 4,2 km/h (1 Bft) SO 131 0 min 0,000 mm 0,0 UV-I 0 W/m 1,0 C 1,3 C 8,0 km/h (2 Bft) 100,00 %
30.12.2015 04:05 1,3 C 98 % 1032,6 hPa 0,0 l/m 4,0 km/h (1 Bft) O-NO 58 0 min 0,000 mm 0,0 UV-I 0 W/m 1,0 C 1,3 C 6,4 km/h (2 Bft) 98,96 %
30.12.2015 04:10 1,4 C 98 % 1032,6 hPa 0,0 l/m 4,1 km/h (1 Bft) O 80 0 min 0,000 mm 0,0 UV-I 0 W/m 1,1 C 1,4 C 6,4 km/h (2 Bft) 98,39 %
30.12.2015 04:15 1,4 C 98 % 1032,6 hPa 0,0 l/m 5,6 km/h (1 Bft) O-NO 78 0 min 0,000 mm 0,0 UV-I 0 W/m 1,1 C 1,4 C 11,3 km/h (2 Bft) 97,37 %
30.12.2015 04:20 1,4 C 98 % 1032,5 hPa 0,0 l/m 4,1 km/h (1 Bft) O 88 0 min 0,000 mm 0,0 UV-I 0 W/m 1,1 C 1,4 C 8,0 km/h (2 Bft) 96,52 %
30.12.2015 04:25 1,4 C 98 % 1032,6 hPa 0,0 l/m 2,5 km/h (1 Bft) O 81 0 min 0,000 mm 0,0 UV-I 0 W/m 1,1 C 1,4 C 6,4 km/h (2 Bft) 97,50 %
30.12.2015 04:30 1,4 C 98 % 1032,6 hPa 0,0 l/m 5,8 km/h (2 Bft) NO 55 0 min 0,000 mm 0,0 UV-I 0 W/m 1,1 C 1,4 C 9,7 km/h (2 Bft) 96,69 %
30.12.2015 04:35 1,4 C 98 % 1032,6 hPa 0,0 l/m 7,5 km/h (2 Bft) O-NO 63 0 min 0,000 mm 0,0 UV-I 0 W/m 1,1 C 0,3 C 12,9 km/h (3 Bft) 97,25 %
30.12.2015 04:40 1,4 C 98 % 1032,6 hPa 0,0 l/m 7,4 km/h (2 Bft) O-NO 69 0 min 0,000 mm 0,0 UV-I 0 W/m 1,1 C 0,4 C 12,9 km/h (3 Bft) 97,62 %
30.12.2015 04:45 1,4 C 98 % 1032,6 hPa 0,0 l/m 6,7 km/h (2 Bft) O-NO 71 0 min 0,000 mm 0,0 UV-I 0 W/m 1,1 C 1,1 C 9,7 km/h (2 Bft) 97,32 %
30.12.2015 04:50 1,4 C 98 % 1032,6 hPa 0,0 l/m 6,3 km/h (2 Bft) O-NO 77 0 min 0,000 mm 0,0 UV-I 0 W/m 1,1 C 1,4 C 11,3 km/h (2 Bft) 100,00 %
30.12.2015 04:55 1,4 C 98 % 1032,7 hPa 0,0 l/m 6,4 km/h (2 Bft) O-NO 71 0 min 0,000 mm 0,0 UV-I 0 W/m 1,1 C 1,4 C 11,3 km/h (2 Bft) 95,50 %
30.12.2015 05:00 1,4 C 98 % 1032,6 hPa 0,0 l/m 4,5 km/h (1 Bft) O-NO 75 0 min 0,000 mm 0,0 UV-I 0 W/m 1,1 C 1,4 C 8,0 km/h (2 Bft) 100,00 %
30.12.2015 05:05 1,4 C 98 % 1032,6 hPa 0,0 l/m 5,9 km/h (2 Bft) O 89 0 min 0,000 mm 0,0 UV-I 0 W/m 1,1 C 1,4 C 11,3 km/h (2 Bft) 98,55 %
30.12.2015 05:10 1,3 C 98 % 1032,6 hPa 0,0 l/m 8,8 km/h (2 Bft) O-NO 58 0 min 0,000 mm 0,0 UV-I 0 W/m 1,0 C -1,0 C 14,5 km/h (3 Bft) 99,08 %
30.12.2015 05:15 1,3 C 98 % 1032,7 hPa 0,0 l/m 10,9 km/h (2 Bft) O-NO 61 0 min 0,000 mm 0,0 UV-I 0 W/m 1,0 C -2,7 C 16,1 km/h (3 Bft) 100,00 %
30.12.2015 05:20 1,3 C 98 % 1032,6 hPa 0,0 l/m 9,5 km/h (2 Bft) O-NO 71 0 min 0,000 mm 0,0 UV-I 0 W/m 1,0 C -1,6 C 14,5 km/h (3 Bft) 98,33 %
30.12.2015 05:25 1,3 C 98 % 1032,6 hPa 0,0 l/m 10,0 km/h (2 Bft) O-NO 74 0 min 0,000 mm 0,0 UV-I 0 W/m 1,0 C -2,0 C 14,5 km/h (3 Bft) 100,00 %
30.12.2015 05:30 1,3 C 99 % 1032,7 hPa 0,0 l/m 9,0 km/h (2 Bft) NO 39 0 min 0,000 mm 0,0 UV-I 0 W/m 1,2 C -1,2 C 14,5 km/h (3 Bft) 100,00 %
30.12.2015 05:35 1,2 C 99 % 1032,6 hPa 0,0 l/m 12,8 km/h (3 Bft) O-NO 72 0 min 0,000 mm 0,0 UV-I 0 W/m 1,1 C -4,2 C 19,3 km/h (3 Bft) 99,21 %
30.12.2015 05:40 1,2 C 99 % 1032,6 hPa 0,0 l/m 13,6 km/h (3 Bft) O-NO 67 0 min 0,000 mm 0,0 UV-I 0 W/m 1,1 C -4,7 C 19,3 km/h (3 Bft) 99,08 %
30.12.2015 05:45 1,2 C 99 % 1032,6 hPa 0,0 l/m 8,1 km/h (2 Bft) NO 56 0 min 0,000 mm 0,0 UV-I 0 W/m 1,1 C -0,5 C 14,5 km/h (3 Bft) 99,19 %
30.12.2015 05:50 1,2 C 99 % 1032,6 hPa 0,0 l/m 9,2 km/h (2 Bft) O-SO 117 0 min 0,000 mm 0,0 UV-I 0 W/m 1,1 C -1,5 C 14,5 km/h (3 Bft) 98,26 %
30.12.2015 05:55 1,2 C 99 % 1032,6 hPa 0,0 l/m 9,1 km/h (2 Bft) O-NO 61 0 min 0,000 mm 0,0 UV-I 0 W/m 1,1 C -1,4 C 16,1 km/h (3 Bft) 100,00 %
30.12.2015 06:00 1,2 C 99 % 1032,6 hPa 0,0 l/m 11,6 km/h (2 Bft) O-NO 59 0 min 0,000 mm 0,0 UV-I 0 W/m 1,1 C -3,3 C 16,1 km/h (3 Bft) 98,20 %
30.12.2015 06:05 1,2 C 99 % 1032,6 hPa 0,0 l/m 13,8 km/h (3 Bft) O-NO 71 0 min 0,000 mm 0,0 UV-I 0 W/m 1,1 C -4,8 C 19,3 km/h (3 Bft) 98,94 %
30.12.2015 06:10 1,3 C 99 % 1032,7 hPa 0,0 l/m 7,2 km/h (2 Bft) NO 54 0 min 0,000 mm 0,0 UV-I 0 W/m 1,2 C 0,5 C 14,5 km/h (3 Bft) 98,62 %
30.12.2015 06:15 1,3 C 98 % 1032,7 hPa 0,0 l/m 9,2 km/h (2 Bft) O-NO 63 0 min 0,000 mm 0,0 UV-I 0 W/m 1,0 C -1,4 C 14,5 km/h (3 Bft) 96,49 %
30.12.2015 06:20 1,3 C 98 % 1032,6 hPa 0,0 l/m 12,8 km/h (3 Bft) O 85 0 min 0,000 mm 0,0 UV-I 0 W/m 1,0 C -4,0 C 17,7 km/h (3 Bft) 97,25 %
30.12.2015 06:25 1,3 C 98 % 1032,7 hPa 0,0 l/m 9,9 km/h (2 Bft) O-NO 59 0 min 0,000 mm 0,0 UV-I 0 W/m 1,0 C -1,9 C 16,1 km/h (3 Bft) 95,97 %
30.12.2015 06:30 1,4 C 98 % 1032,6 hPa 0,0 l/m 8,5 km/h (2 Bft) O-NO 67 0 min 0,000 mm 0,0 UV-I 0 W/m 1,1 C -0,6 C 14,5 km/h (3 Bft) 97,56 %
30.12.2015 06:35 1,4 C 98 % 1032,6 hPa 0,0 l/m 13,1 km/h (3 Bft) O-NO 71 0 min 0,000 mm 0,0 UV-I 0 W/m 1,1 C -4,1 C 19,3 km/h (3 Bft) 96,33 %
30.12.2015 06:40 1,4 C 98 % 1032,6 hPa 0,0 l/m 10,8 km/h (2 Bft) O-NO 78 0 min 0,000 mm 0,0 UV-I 0 W/m 1,1 C -2,5 C 16,1 km/h (3 Bft) 97,50 %
30.12.2015 06:45 1,5 C 98 % 1032,6 hPa 0,0 l/m 11,5 km/h (2 Bft) NO 49 0 min 0,000 mm 0,0 UV-I 0 W/m 1,2 C -2,9 C 20,9 km/h (4 Bft) 98,31 %
30.12.2015 06:50 1,5 C 98 % 1032,6 hPa 0,0 l/m 10,6 km/h (2 Bft) NO 42 0 min 0,000 mm 0,0 UV-I 0 W/m 1,2 C -2,3 C 17,7 km/h (3 Bft) 97,52 %
30.12.2015 06:55 1,6 C 98 % 1032,7 hPa 0,0 l/m 13,4 km/h (3 Bft) NO 46 0 min 0,000 mm 0,0 UV-I 0 W/m 1,3 C -4,1 C 19,3 km/h (3 Bft) 97,30 %
30.12.2015 07:00 1,6 C 97 % 1032,7 hPa 0,0 l/m 13,7 km/h (3 Bft) O 85 0 min 0,000 mm 0,0 UV-I 0 W/m 1,2 C -4,3 C 20,9 km/h (4 Bft) 97,25 %
30.12.2015 07:05 1,6 C 97 % 1032,7 hPa 0,0 l/m 18,1 km/h (3 Bft) NO 47 0 min 0,000 mm 0,0 UV-I 0 W/m 1,2 C -6,7 C 29,0 km/h (5 Bft) 99,19 %
30.12.2015 07:10 1,7 C 96 % 1032,7 hPa 0,0 l/m 14,6 km/h (3 Bft) O 86 0 min 0,000 mm 0,0 UV-I 0 W/m 1,1 C -4,7 C 22,5 km/h (4 Bft) 100,00 %
30.12.2015 07:15 1,7 C 96 % 1032,7 hPa 0,0 l/m 15,5 km/h (3 Bft) NO 38 0 min 0,000 mm 0,0 UV-I 0 W/m 1,1 C -5,2 C 20,9 km/h (4 Bft) 100,00 %
30.12.2015 07:20 1,7 C 96 % 1032,7 hPa 0,0 l/m 17,1 km/h (3 Bft) O-NO 59 0 min 0,000 mm 0,0 UV-I 0 W/m 1,1 C -6,1 C 24,1 km/h (4 Bft) 98,29 %
30.12.2015 07:25 1,7 C 96 % 1032,6 hPa 0,0 l/m 20,5 km/h (4 Bft) O-NO 69 0 min 0,000 mm 0,0 UV-I 0 W/m 1,1 C -7,7 C 29,0 km/h (5 Bft) 99,13 %
30.12.2015 07:30 1,7 C 95 % 1032,7 hPa 0,0 l/m 19,4 km/h (3 Bft) O-NO 63 0 min 0,000 mm 0,0 UV-I 0 W/m 1,0 C -7,2 C 30,6 km/h (5 Bft) 100,00 %
30.12.2015 07:35 1,7 C 95 % 1032,7 hPa 0,0 l/m 18,5 km/h (3 Bft) O-NO 65 0 min 0,000 mm 0,0 UV-I 0 W/m 1,0 C -6,7 C 27,4 km/h (4 Bft) 98,41 %
30.12.2015 07:40 1,7 C 95 % 1032,7 hPa 0,0 l/m 16,9 km/h (3 Bft) O-NO 62 0 min 0,000 mm 0,0 UV-I 0 W/m 1,0 C -6,0 C 27,4 km/h (4 Bft) 100,00 %
30.12.2015 07:45 1,7 C 95 % 1032,7 hPa 0,0 l/m 22,4 km/h (4 Bft) O-NO 71 0 min 0,000 mm 0,0 UV-I 0 W/m 1,0 C -8,4 C 33,8 km/h (5 Bft) 99,12 %
30.12.2015 07:50 1,7 C 95 % 1032,8 hPa 0,0 l/m 20,0 km/h (4 Bft) NO 55 0 min 0,000 mm 0,0 UV-I 0 W/m 1,0 C -7,4 C 29,0 km/h (5 Bft) 99,19 %
30.12.2015 07:55 1,7 C 95 % 1032,8 hPa 0,0 l/m 21,0 km/h (4 Bft) O-NO 73 0 min 0,000 mm 0,0 UV-I 0 W/m 1,0 C -7,9 C 33,8 km/h (5 Bft) 99,15 %
30.12.2015 08:00 1,7 C 95 % 1032,8 hPa 0,0 l/m 18,4 km/h (3 Bft) NO 45 0 min 0,000 mm 0,0 UV-I 0 W/m 1,0 C -6,7 C 29,0 km/h (5 Bft) 100,00 %
30.12.2015 08:05 1,7 C 95 % 1032,7 hPa 0,0 l/m 22,2 km/h (4 Bft) O-NO 69 0 min 0,000 mm 0,0 UV-I 1 W/m 1,0 C -8,4 C 33,8 km/h (5 Bft) 100,00 %
30.12.2015 08:10 1,7 C 95 % 1032,8 hPa 0,0 l/m 20,1 km/h (4 Bft) O-NO 72 0 min 0,000 mm 0,0 UV-I 6 W/m 1,0 C -7,5 C 30,6 km/h (5 Bft) 100,00 %
30.12.2015 08:25 1,7 C 95 % 1032,8 hPa 0,0 l/m 19,6 km/h (3 Bft) O-NO 68 0 min 0,000 mm 0,0 UV-I 12 W/m 1,0 C -7,3 C 29,0 km/h (5 Bft) 96,68 %
30.12.2015 08:30 1,7 C 95 % 1032,8 hPa 0,0 l/m 25,5 km/h (4 Bft) O 81 0 min 0,000 mm 0,0 UV-I 13 W/m 1,0 C -9,6 C 37,0 km/h (5 Bft) 98,06 %
30.12.2015 08:35 1,8 C 95 % 1032,8 hPa 0,0 l/m 20,2 km/h (4 Bft) O-NO 60 0 min 0,000 mm 0,0 UV-I 16 W/m 1,1 C -7,4 C 29,0 km/h (5 Bft) 96,92 %
30.12.2015 08:40 1,8 C 95 % 1032,8 hPa 0,0 l/m 22,1 km/h (4 Bft) O-NO 78 0 min 0,000 mm 0,0 UV-I 17 W/m 1,1 C -8,2 C 33,8 km/h (5 Bft) 96,40 %
30.12.2015 08:45 1,8 C 95 % 1032,8 hPa 0,0 l/m 19,0 km/h (3 Bft) O-NO 74 0 min 0,000 mm 0,0 UV-I 20 W/m 1,1 C -6,9 C 27,4 km/h (4 Bft) 97,46 %
30.12.2015 08:50 1,8 C 95 % 1032,8 hPa 0,0 l/m 19,8 km/h (3 Bft) O-NO 77 0 min 0,000 mm 0,0 UV-I 21 W/m 1,1 C -7,2 C 41,8 km/h (6 Bft) 98,35 %
30.12.2015 08:55 1,8 C 95 % 1032,8 hPa 0,0 l/m 19,8 km/h (3 Bft) O-NO 67 0 min 0,000 mm 0,0 UV-I 24 W/m 1,1 C -7,2 C 29,0 km/h (5 Bft) 99,10 %
30.12.2015 09:00 1,8 C 95 % 1032,7 hPa 0,0 l/m 23,2 km/h (4 Bft) O 82 0 min 0,025 mm 0,0 UV-I 25 W/m 1,1 C -8,6 C 33,8 km/h (5 Bft) 100,00 %
30.12.2015 09:05 1,8 C 95 % 1032,8 hPa 0,0 l/m 23,1 km/h (4 Bft) NO 45 0 min 0,000 mm 0,0 UV-I 25 W/m 1,1 C -8,6 C 32,2 km/h (5 Bft) 99,17 %
30.12.2015 09:10 1,7 C 95 % 1032,7 hPa 0,0 l/m 25,9 km/h (4 Bft) NO 36 0 min 0,000 mm 0,0 UV-I 25 W/m 1,0 C -9,7 C 37,0 km/h (5 Bft) 100,00 %
30.12.2015 09:15 1,7 C 95 % 1032,7 hPa 0,0 l/m 23,9 km/h (4 Bft) NO 55 0 min 0,000 mm 0,0 UV-I 24 W/m 1,0 C -9,0 C 35,4 km/h (5 Bft) 100,00 %
30.12.2015 09:20 1,7 C 96 % 1032,8 hPa 0,0 l/m 26,5 km/h (4 Bft) O-NO 62 0 min 0,000 mm 0,0 UV-I 26 W/m 1,1 C -9,9 C 38,6 km/h (5 Bft) 100,00 %
30.12.2015 09:25 1,7 C 96 % 1032,8 hPa 0,0 l/m 23,6 km/h (4 Bft) NO 44 0 min 0,000 mm 0,0 UV-I 26 W/m 1,1 C -8,9 C 37,0 km/h (5 Bft) 100,00 %
30.12.2015 09:30 1,6 C 96 % 1032,7 hPa 0,0 l/m 27,2 km/h (4 Bft) O-NO 76 0 min 0,000 mm 0,0 UV-I 29 W/m 1,0 C -10,3 C 38,6 km/h (5 Bft) 100,00 %
30.12.2015 09:35 1,6 C 96 % 1032,8 hPa 0,0 l/m 24,8 km/h (4 Bft) O-NO 66 0 min 0,000 mm 0,0 UV-I 31 W/m 1,0 C -9,5 C 37,0 km/h (5 Bft) 100,00 %
30.12.2015 09:40 1,6 C 96 % 1032,7 hPa 0,0 l/m 25,3 km/h (4 Bft) O-NO 66 0 min 0,000 mm 0,0 UV-I 30 W/m 1,0 C -9,7 C 35,4 km/h (5 Bft) 99,19 %
30.12.2015 09:45 1,6 C 96 % 1032,7 hPa 0,0 l/m 23,4 km/h (4 Bft) NO 49 0 min 0,000 mm 0,0 UV-I 32 W/m 1,0 C -9,0 C 33,8 km/h (5 Bft) 100,00 %
30.12.2015 09:50 1,6 C 96 % 1032,7 hPa 0,0 l/m 23,6 km/h (4 Bft) NO 55 0 min 0,000 mm 0,0 UV-I 33 W/m 1,0 C -9,0 C 35,4 km/h (5 Bft) 99,17 %
30.12.2015 09:55 1,6 C 96 % 1032,8 hPa 0,0 l/m 25,7 km/h (4 Bft) O-NO 69 0 min 0,000 mm 0,0 UV-I 36 W/m 1,0 C -9,8 C 37,0 km/h (5 Bft) 100,00 %
30.12.2015 10:00 1,6 C 96 % 1032,8 hPa 0,0 l/m 23,8 km/h (4 Bft) O-NO 67 0 min 0,026 mm 0,0 UV-I 39 W/m 1,0 C -9,1 C 35,4 km/h (5 Bft) 98,15 %
30.12.2015 10:05 1,6 C 96 % 1032,9 hPa 0,0 l/m 23,4 km/h (4 Bft) O-NO 71 0 min 0,000 mm 0,0 UV-I 40 W/m 1,0 C -9,0 C 41,8 km/h (6 Bft) 99,17 %
30.12.2015 10:10 1,6 C 96 % 1032,9 hPa 0,0 l/m 27,3 km/h (4 Bft) O-NO 65 0 min 0,000 mm 0,0 UV-I 40 W/m 1,0 C -10,3 C 37,0 km/h (5 Bft) 99,17 %
30.12.2015 10:15 1,6 C 96 % 1032,9 hPa 0,0 l/m 23,9 km/h (4 Bft) O 85 0 min 0,000 mm 0,0 UV-I 40 W/m 1,0 C -9,2 C 35,4 km/h (5 Bft) 97,50 %
30.12.2015 10:20 1,6 C 96 % 1032,8 hPa 0,0 l/m 25,1 km/h (4 Bft) NO 53 0 min 0,000 mm 0,0 UV-I 38 W/m 1,0 C -9,6 C 38,6 km/h (5 Bft) 97,39 %
30.12.2015 10:25 1,6 C 96 % 1032,9 hPa 0,0 l/m 23,0 km/h (4 Bft) O-NO 59 0 min 0,000 mm 0,0 UV-I 34 W/m 1,0 C -8,8 C 33,8 km/h (5 Bft) 98,17 %
30.12.2015 10:30 1,5 C 96 % 1032,7 hPa 0,0 l/m 29,3 km/h (5 Bft) O-NO 74 0 min 0,000 mm 0,0 UV-I 43 W/m 0,9 C -11,1 C 40,2 km/h (6 Bft) 94,17 %
30.12.2015 10:35 1,6 C 96 % 1032,6 hPa 0,0 l/m 28,8 km/h (4 Bft) O-NO 66 0 min 0,000 mm 0,0 UV-I 53 W/m 1,0 C -10,8 C 45,1 km/h (6 Bft) 97,46 %
30.12.2015 10:40 1,6 C 95 % 1032,6 hPa 0,0 l/m 27,7 km/h (4 Bft) NO 42 0 min 0,000 mm 0,0 UV-I 60 W/m 0,9 C -10,5 C 38,6 km/h (5 Bft) 95,83 %
30.12.2015 10:45 1,6 C 95 % 1032,6 hPa 0,0 l/m 25,1 km/h (4 Bft) O-NO 58 0 min 0,000 mm 0,0 UV-I 67 W/m 0,9 C -9,6 C 35,4 km/h (5 Bft) 98,26 %
30.12.2015 10:50 1,6 C 95 % 1032,6 hPa 0,0 l/m 30,0 km/h (5 Bft) O 95 0 min 0,000 mm 0,0 UV-I 67 W/m 0,9 C -11,2 C 40,2 km/h (6 Bft) 99,13 %
30.12.2015 10:55 1,7 C 95 % 1032,5 hPa 0,0 l/m 23,2 km/h (4 Bft) O-NO 61 0 min 0,000 mm 0,0 UV-I 75 W/m 1,0 C -8,8 C 33,8 km/h (5 Bft) 99,17 %
30.12.2015 11:00 1,7 C 94 % 1032,5 hPa 0,0 l/m 28,7 km/h (4 Bft) NO 44 0 min 0,025 mm 0,0 UV-I 89 W/m 0,8 C -10,6 C 48,3 km/h (6 Bft) 99,17 %
30.12.2015 11:05 1,8 C 94 % 1032,5 hPa 0,0 l/m 26,0 km/h (4 Bft) O-NO 76 0 min 0,000 mm 0,0 UV-I 91 W/m 0,9 C -9,6 C 37,0 km/h (5 Bft) 98,29 %
30.12.2015 11:10 1,8 C 94 % 1032,3 hPa 0,0 l/m 27,2 km/h (4 Bft) NO 51 0 min 0,000 mm 0,0 UV-I 92 W/m 0,9 C -10,0 C 38,6 km/h (5 Bft) 98,06 %
30.12.2015 11:15 1,8 C 93 % 1032,3 hPa 0,0 l/m 29,8 km/h (5 Bft) O-NO 70 0 min 0,000 mm 0,0 UV-I 80 W/m 0,8 C -10,8 C 46,7 km/h (6 Bft) 99,23 %
30.12.2015 11:20 1,8 C 93 % 1032,1 hPa 0,0 l/m 27,8 km/h (4 Bft) NO 40 0 min 0,000 mm 0,0 UV-I 94 W/m 0,8 C -10,2 C 38,6 km/h (5 Bft) 100,00 %
30.12.2015 11:25 1,9 C 94 % 1032,0 hPa 0,0 l/m 28,3 km/h (4 Bft) NO 40 0 min 0,000 mm 0,0 UV-I 91 W/m 1,0 C -10,2 C 40,2 km/h (6 Bft) 99,13 %
30.12.2015 11:30 1,9 C 93 % 1032,0 hPa 0,0 l/m 32,4 km/h (5 Bft) O-NO 61 0 min 0,000 mm 0,0 UV-I 102 W/m 0,9 C -11,4 C 46,7 km/h (6 Bft) 97,52 %
30.12.2015 11:35 1,9 C 93 % 1031,9 hPa 0,0 l/m 30,0 km/h (5 Bft) O-NO 75 0 min 0,000 mm 0,0 UV-I 99 W/m 0,9 C -10,7 C 46,7 km/h (6 Bft) 99,10 %
30.12.2015 11:40 1,9 C 92 % 1031,7 hPa 0,0 l/m 32,0 km/h (5 Bft) NO 42 0 min 0,000 mm 0,0 UV-I 94 W/m 0,7 C -11,3 C 48,3 km/h (6 Bft) 100,00 %
30.12.2015 11:45 1,9 C 92 % 1031,8 hPa 0,0 l/m 29,5 km/h (5 Bft) O-NO 62 0 min 0,000 mm 0,0 UV-I 105 W/m 0,7 C -10,6 C 46,7 km/h (6 Bft) 100,00 %
30.12.2015 11:50 1,9 C 92 % 1031,7 hPa 0,0 l/m 31,9 km/h (5 Bft) O 80 0 min 0,000 mm 0,0 UV-I 101 W/m 0,7 C -11,3 C 45,1 km/h (6 Bft) 99,17 %
30.12.2015 11:55 1,9 C 92 % 1031,6 hPa 0,0 l/m 26,4 km/h (4 Bft) O 94 0 min 0,000 mm 0,0 UV-I 104 W/m 0,7 C -9,6 C 37,0 km/h (5 Bft) 99,13 %
30.12.2015 12:00 2,0 C 92 % 1031,6 hPa 0,0 l/m 25,3 km/h (4 Bft) NO 48 0 min 0,000 mm 0,0 UV-I 94 W/m 0,8 C -9,1 C 35,4 km/h (5 Bft) 99,19 %
30.12.2015 12:05 2,0 C 92 % 1031,5 hPa 0,0 l/m 20,9 km/h (4 Bft) O-NO 63 0 min 0,051 mm 0,0 UV-I 88 W/m 0,8 C -7,4 C 30,6 km/h (5 Bft) 100,00 %
30.12.2015 12:10 2,1 C 92 % 1031,5 hPa 0,0 l/m 21,9 km/h (4 Bft) O-NO 77 0 min 0,000 mm 0,0 UV-I 87 W/m 0,9 C -7,7 C 40,2 km/h (6 Bft) 100,00 %
30.12.2015 12:15 2,0 C 92 % 1031,4 hPa 0,0 l/m 23,7 km/h (4 Bft) O-NO 69 0 min 0,000 mm 0,0 UV-I 82 W/m 0,8 C -8,5 C 33,8 km/h (5 Bft) 99,07 %
30.12.2015 12:20 2,1 C 92 % 1031,3 hPa 0,0 l/m 18,5 km/h (3 Bft) O-NO 67 0 min 0,000 mm 0,0 UV-I 81 W/m 0,9 C -6,2 C 29,0 km/h (5 Bft) 98,35 %
30.12.2015 12:25 2,1 C 92 % 1031,2 hPa 0,0 l/m 19,4 km/h (3 Bft) O 86 0 min 0,000 mm 0,0 UV-I 78 W/m 0,9 C -6,7 C 29,0 km/h (5 Bft) 97,46 %
30.12.2015 12:30 2,1 C 92 % 1031,1 hPa 0,0 l/m 19,1 km/h (3 Bft) O-NO 66 0 min 0,000 mm 0,0 UV-I 77 W/m 0,9 C -6,5 C 29,0 km/h (5 Bft) 96,75 %
30.12.2015 12:35 2,2 C 91 % 1031,0 hPa 0,0 l/m 19,4 km/h (3 Bft) O-NO 57 0 min 0,000 mm 0,0 UV-I 72 W/m 0,9 C -6,5 C 29,0 km/h (5 Bft) 96,23 %
30.12.2015 12:40 2,2 C 91 % 1031,0 hPa 0,0 l/m 22,2 km/h (4 Bft) O 82 0 min 0,000 mm 0,0 UV-I 84 W/m 0,9 C -7,7 C 40,2 km/h (6 Bft) 98,31 %
30.12.2015 12:45 2,2 C 91 % 1030,9 hPa 0,0 l/m 23,2 km/h (4 Bft) O-NO 66 0 min 0,000 mm 0,0 UV-I 83 W/m 0,9 C -8,1 C 32,2 km/h (5 Bft) 97,44 %
30.12.2015 12:50 2,2 C 91 % 1030,8 hPa 0,0 l/m 26,1 km/h (4 Bft) O-NO 65 0 min 0,000 mm 0,0 UV-I 87 W/m 0,9 C -9,1 C 40,2 km/h (6 Bft) 96,77 %
30.12.2015 12:55 2,2 C 90 % 1030,7 hPa 0,0 l/m 28,5 km/h (4 Bft) NO 55 0 min 0,000 mm 0,0 UV-I 96 W/m 0,7 C -9,9 C 43,5 km/h (6 Bft) 100,00 %
30.12.2015 13:00 2,2 C 90 % 1030,6 hPa 0,0 l/m 27,9 km/h (4 Bft) O-NO 61 0 min 0,000 mm 0,0 UV-I 92 W/m 0,7 C -9,7 C 38,6 km/h (5 Bft) 99,08 %
30.12.2015 13:05 2,2 C 90 % 1030,6 hPa 0,0 l/m 25,9 km/h (4 Bft) O-NO 57 0 min 0,051 mm 0,0 UV-I 93 W/m 0,7 C -9,0 C 35,4 km/h (5 Bft) 100,00 %
30.12.2015 13:10 2,3 C 90 % 1030,4 hPa 0,0 l/m 25,4 km/h (4 Bft) O-NO 59 0 min 0,000 mm 0,0 UV-I 99 W/m 0,8 C -8,7 C 37,0 km/h (5 Bft) 98,95 %
30.12.2015 13:15 2,3 C 89 % 1030,3 hPa 0,0 l/m 28,9 km/h (5 Bft) O-NO 78 0 min 0,000 mm 0,0 UV-I 105 W/m 0,7 C -9,9 C 43,5 km/h (6 Bft) 99,29 %
30.12.2015 13:20 2,4 C 90 % 1030,3 hPa 0,0 l/m 26,0 km/h (4 Bft) NO 43 0 min 0,000 mm 0,0 UV-I 121 W/m 0,9 C -8,8 C 37,0 km/h (5 Bft) 97,30 %
30.12.2015 13:25 2,5 C 89 % 1030,3 hPa 0,0 l/m 25,0 km/h (4 Bft) O-NO 60 0 min 0,000 mm 0,0 UV-I 113 W/m 0,9 C -8,3 C 41,8 km/h (6 Bft) 99,11 %
30.12.2015 13:30 2,6 C 89 % 1030,2 hPa 0,0 l/m 25,0 km/h (4 Bft) O-NO 71 0 min 0,000 mm 0,0 UV-I 132 W/m 1,0 C -8,2 C 33,8 km/h (5 Bft) 98,26 %
30.12.2015 13:35 2,6 C 89 % 1030,1 hPa 0,0 l/m 25,4 km/h (4 Bft) O 95 0 min 0,000 mm 0,0 UV-I 146 W/m 1,0 C -8,3 C 41,8 km/h (6 Bft) 100,00 %
30.12.2015 13:40 2,6 C 89 % 1030,0 hPa 0,0 l/m 29,2 km/h (5 Bft) O 80 0 min 0,000 mm 0,0 UV-I 120 W/m 1,0 C -9,5 C 43,5 km/h (6 Bft) 100,00 %
30.12.2015 13:45 2,6 C 88 % 1030,0 hPa 0,0 l/m 26,5 km/h (4 Bft) O 80 0 min 0,000 mm 0,0 UV-I 109 W/m 0,8 C -8,7 C 37,0 km/h (5 Bft) 98,29 %
30.12.2015 13:50 2,6 C 88 % 1030,0 hPa 0,0 l/m 25,2 km/h (4 Bft) O-NO 57 0 min 0,000 mm 0,0 UV-I 112 W/m 0,8 C -8,3 C 37,0 km/h (5 Bft) 99,15 %
30.12.2015 13:55 2,6 C 88 % 1029,9 hPa 0,0 l/m 25,1 km/h (4 Bft) O-NO 70 0 min 0,000 mm 0,0 UV-I 101 W/m 0,8 C -8,2 C 37,0 km/h (5 Bft) 100,00 %
30.12.2015 14:00 2,6 C 88 % 1029,8 hPa 0,0 l/m 30,0 km/h (5 Bft) O 92 5 min 0,000 mm 0,0 UV-I 151 W/m 0,8 C -9,8 C 46,7 km/h (6 Bft) 99,15 %
30.12.2015 14:05 2,7 C 88 % 1029,8 hPa 0,0 l/m 30,9 km/h (5 Bft) O-NO 61 0 min 0,076 mm 0,0 UV-I 127 W/m 0,9 C -9,9 C 43,5 km/h (6 Bft) 100,00 %
30.12.2015 14:10 2,8 C 87 % 1029,8 hPa 0,0 l/m 24,9 km/h (4 Bft) O-NO 67 5 min 0,000 mm 0,0 UV-I 152 W/m 0,9 C -7,9 C 38,6 km/h (5 Bft) 98,26 %
30.12.2015 14:15 2,9 C 87 % 1029,7 hPa 0,0 l/m 26,9 km/h (4 Bft) O-NO 61 5 min 0,000 mm 0,0 UV-I 166 W/m 1,0 C -8,4 C 40,2 km/h (6 Bft) 96,75 %
30.12.2015 14:20 2,9 C 87 % 1029,7 hPa 0,0 l/m 26,7 km/h (4 Bft) O-NO 69 5 min 0,000 mm 0,0 UV-I 153 W/m 1,0 C -8,3 C 37,0 km/h (5 Bft) 98,26 %
30.12.2015 14:25 3,0 C 86 % 1029,7 hPa 0,0 l/m 25,5 km/h (4 Bft) O-NO 58 5 min 0,000 mm 0,0 UV-I 155 W/m 0,9 C -7,8 C 37,0 km/h (5 Bft) 96,52 %
30.12.2015 14:30 3,1 C 86 % 1029,7 hPa 0,0 l/m 23,8 km/h (4 Bft) O-NO 59 5 min 0,000 mm 0,0 UV-I 148 W/m 1,0 C -7,1 C 38,6 km/h (5 Bft) 96,58 %
30.12.2015 14:35 3,2 C 86 % 1029,8 hPa 0,0 l/m 20,8 km/h (4 Bft) O-NO 65 5 min 0,000 mm 0,0 UV-I 146 W/m 1,1 C -5,8 C 37,0 km/h (5 Bft) 97,58 %
30.12.2015 14:40 3,2 C 85 % 1029,5 hPa 0,0 l/m 28,4 km/h (4 Bft) O-NO 68 5 min 0,000 mm 0,0 UV-I 127 W/m 0,9 C -8,5 C 41,8 km/h (6 Bft) 98,08 %
30.12.2015 14:45 3,2 C 85 % 1029,5 hPa 0,0 l/m 27,3 km/h (4 Bft) O-NO 61 5 min 0,000 mm 0,0 UV-I 105 W/m 0,9 C -8,1 C 46,7 km/h (6 Bft) 98,41 %
30.12.2015 14:50 3,2 C 85 % 1029,5 hPa 0,0 l/m 29,3 km/h (5 Bft) O-NO 78 5 min 0,000 mm 0,0 UV-I 98 W/m 0,9 C -8,7 C 46,7 km/h (6 Bft) 99,17 %
30.12.2015 14:55 3,1 C 84 % 1029,5 hPa 0,0 l/m 29,4 km/h (5 Bft) NO 41 0 min 0,000 mm 0,0 UV-I 73 W/m 0,7 C -8,9 C 48,3 km/h (6 Bft) 97,22 %
30.12.2015 15:00 3,1 C 85 % 1029,6 hPa 0,0 l/m 28,9 km/h (5 Bft) O-NO 65 0 min 0,076 mm 0,0 UV-I 75 W/m 0,8 C -8,7 C 46,7 km/h (6 Bft) 100,00 %
30.12.2015 15:05 3,0 C 85 % 1029,7 hPa 0,0 l/m 25,5 km/h (4 Bft) O-NO 64 0 min 0,000 mm 0,0 UV-I 70 W/m 0,7 C -7,8 C 33,8 km/h (5 Bft) 99,15 %
30.12.2015 15:10 2,9 C 84 % 1029,7 hPa 0,0 l/m 26,1 km/h (4 Bft) O-NO 75 0 min 0,000 mm 0,0 UV-I 67 W/m 0,5 C -8,2 C 40,2 km/h (6 Bft) 100,00 %
30.12.2015 15:15 2,9 C 84 % 1029,6 hPa 0,0 l/m 24,9 km/h (4 Bft) NO 49 0 min 0,000 mm 0,0 UV-I 67 W/m 0,5 C -7,8 C 38,6 km/h (5 Bft) 100,00 %
30.12.2015 15:20 2,8 C 85 % 1029,7 hPa 0,0 l/m 25,2 km/h (4 Bft) O-NO 74 0 min 0,000 mm 0,0 UV-I 56 W/m 0,5 C -8,0 C 41,8 km/h (6 Bft) 99,17 %
30.12.2015 15:25 2,8 C 85 % 1029,7 hPa 0,0 l/m 25,5 km/h (4 Bft) NO 40 0 min 0,000 mm 0,0 UV-I 55 W/m 0,5 C -8,1 C 37,0 km/h (5 Bft) 99,17 %
30.12.2015 15:30 2,7 C 85 % 1029,7 hPa 0,0 l/m 25,1 km/h (4 Bft) O-NO 77 0 min 0,000 mm 0,0 UV-I 50 W/m 0,4 C -8,1 C 35,4 km/h (5 Bft) 98,26 %
30.12.2015 15:35 2,7 C 85 % 1029,6 hPa 0,0 l/m 28,1 km/h (4 Bft) O-NO 62 0 min 0,000 mm 0,0 UV-I 43 W/m 0,4 C -9,1 C 41,8 km/h (6 Bft) 99,10 %
30.12.2015 15:40 2,6 C 85 % 1029,4 hPa 0,0 l/m 28,4 km/h (4 Bft) O-NO 63 0 min 0,000 mm 0,0 UV-I 34 W/m 0,3 C -9,3 C 46,7 km/h (6 Bft) 100,00 %
30.12.2015 15:45 2,5 C 84 % 1029,3 hPa 0,0 l/m 37,6 km/h (5 Bft) NO 51 0 min 0,000 mm 0,0 UV-I 28 W/m 0,1 C -11,7 C 53,1 km/h (7 Bft) 99,24 %
30.12.2015 15:50 2,3 C 85 % 1029,4 hPa 0,0 l/m 32,2 km/h (5 Bft) O-NO 67 0 min 0,000 mm 0,0 UV-I 25 W/m 0,0 C -10,8 C 48,3 km/h (6 Bft) 99,15 %
30.12.2015 15:55 2,2 C 85 % 1029,4 hPa 0,0 l/m 30,1 km/h (5 Bft) NO 55 0 min 0,000 mm 0,0 UV-I 22 W/m -0,1 C -10,3 C 43,5 km/h (6 Bft) 99,15 %
30.12.2015 16:00 2,1 C 86 % 1029,5 hPa 0,0 l/m 28,7 km/h (4 Bft) O 87 5 min 0,051 mm 0,0 UV-I 19 W/m 0,0 C -10,1 C 40,2 km/h (6 Bft) 98,29 %
30.12.2015 16:05 2,0 C 86 % 1029,5 hPa 0,0 l/m 23,2 km/h (4 Bft) O-NO 61 5 min 0,000 mm 0,0 UV-I 17 W/m -0,1 C -8,4 C 43,5 km/h (6 Bft) 95,41 %
30.12.2015 16:10 1,8 C 87 % 1029,4 hPa 0,0 l/m 26,2 km/h (4 Bft) O-NO 67 0 min 0,000 mm 0,0 UV-I 13 W/m -0,1 C -9,7 C 38,6 km/h (5 Bft) 97,52 %
30.12.2015 16:15 1,7 C 87 % 1029,5 hPa 0,0 l/m 25,6 km/h (4 Bft) O-NO 70 0 min 0,000 mm 0,0 UV-I 10 W/m -0,2 C -9,6 C 35,4 km/h (5 Bft) 98,25 %
30.12.2015 16:20 1,6 C 87 % 1029,5 hPa 0,0 l/m 25,4 km/h (4 Bft) NO 45 0 min 0,000 mm 0,0 UV-I 7 W/m -0,3 C -9,7 C 40,2 km/h (6 Bft) 97,52 %
30.12.2015 16:25 1,5 C 87 % 1029,5 hPa 0,0 l/m 25,5 km/h (4 Bft) O-NO 57 0 min 0,000 mm 0,0 UV-I 6 W/m -0,4 C -9,9 C 38,6 km/h (5 Bft) 97,52 %
30.12.2015 16:30 1,4 C 87 % 1029,4 hPa 0,0 l/m 30,3 km/h (5 Bft) O-NO 67 0 min 0,000 mm 0,0 UV-I 3 W/m -0,5 C -11,5 C 45,1 km/h (6 Bft) 97,37 %
30.12.2015 16:35 1,4 C 87 % 1029,5 hPa 0,0 l/m 29,9 km/h (5 Bft) O-NO 60 0 min 0,000 mm 0,0 UV-I 0 W/m -0,5 C -11,4 C 43,5 km/h (6 Bft) 97,25 %
30.12.2015 16:40 1,3 C 87 % 1029,4 hPa 0,0 l/m 29,4 km/h (5 Bft) O-NO 63 0 min 0,000 mm 0,0 UV-I 0 W/m -0,6 C -11,4 C 43,5 km/h (6 Bft) 99,18 %
30.12.2015 16:45 1,2 C 88 % 1029,4 hPa 0,0 l/m 27,4 km/h (4 Bft) NO 56 0 min 0,000 mm 0,0 UV-I 0 W/m -0,6 C -10,9 C 41,8 km/h (6 Bft) 99,19 %
30.12.2015 16:50 1,2 C 88 % 1029,4 hPa 0,0 l/m 34,5 km/h (5 Bft) NO 40 0 min 0,000 mm 0,0 UV-I 0 W/m -0,6 C -12,9 C 49,9 km/h (6 Bft) 100,00 %
30.12.2015 16:55 1,2 C 88 % 1029,3 hPa 0,0 l/m 32,6 km/h (5 Bft) O-NO 76 0 min 0,000 mm 0,0 UV-I 0 W/m -0,6 C -12,4 C 43,5 km/h (6 Bft) 99,17 %
30.12.2015 17:00 1,1 C 88 % 1029,4 hPa 0,0 l/m 31,6 km/h (5 Bft) O-NO 75 0 min 0,025 mm 0,0 UV-I 0 W/m -0,7 C -12,3 C 46,7 km/h (6 Bft) 97,46 %
30.12.2015 17:05 1,0 C 88 % 1029,3 hPa 0,0 l/m 32,4 km/h (5 Bft) O-NO 59 0 min 0,000 mm 0,0 UV-I 0 W/m -0,8 C -12,7 C 54,7 km/h (7 Bft) 98,21 %
30.12.2015 17:10 1,0 C 88 % 1029,3 hPa 0,0 l/m 34,6 km/h (5 Bft) O-NO 63 0 min 0,000 mm 0,0 UV-I 0 W/m -0,8 C -13,2 C 53,1 km/h (7 Bft) 100,00 %
30.12.2015 17:15 0,9 C 88 % 1029,4 hPa 0,0 l/m 29,0 km/h (5 Bft) O-NO 62 0 min 0,000 mm 0,0 UV-I 0 W/m -0,9 C -11,8 C 40,2 km/h (6 Bft) 98,17 %
30.12.2015 17:20 0,9 C 89 % 1029,4 hPa 0,0 l/m 29,7 km/h (5 Bft) NO 55 0 min 0,000 mm 0,0 UV-I 0 W/m -0,7 C -12,1 C 43,5 km/h (6 Bft) 100,00 %
30.12.2015 17:25 0,8 C 88 % 1029,4 hPa 0,0 l/m 32,6 km/h (5 Bft) NO 51 0 min 0,000 mm 0,0 UV-I 0 W/m -1,0 C -13,0 C 48,3 km/h (6 Bft) 100,00 %
30.12.2015 17:30 0,8 C 88 % 1029,3 hPa 0,0 l/m 31,5 km/h (5 Bft) O 84 0 min 0,000 mm 0,0 UV-I 0 W/m -1,0 C -12,7 C 48,3 km/h (6 Bft) 98,39 %
30.12.2015 17:35 0,8 C 88 % 1029,3 hPa 0,0 l/m 30,2 km/h (5 Bft) O 80 0 min 0,000 mm 0,0 UV-I 0 W/m -1,0 C -12,3 C 45,1 km/h (6 Bft) 100,00 %
30.12.2015 17:40 0,7 C 88 % 1029,3 hPa 0,0 l/m 34,2 km/h (5 Bft) O-NO 73 0 min 0,000 mm 0,0 UV-I 0 W/m -1,1 C -13,6 C 53,1 km/h (7 Bft) 100,00 %
30.12.2015 17:45 0,7 C 89 % 1029,3 hPa 0,0 l/m 29,5 km/h (5 Bft) NO 43 0 min 0,000 mm 0,0 UV-I 0 W/m -0,9 C -12,3 C 49,9 km/h (6 Bft) 100,00 %
30.12.2015 17:50 0,6 C 88 % 1029,4 hPa 0,0 l/m 31,9 km/h (5 Bft) NO 42 0 min 0,000 mm 0,0 UV-I 0 W/m -1,2 C -13,1 C 45,1 km/h (6 Bft) 98,29 %
30.12.2015 17:55 0,5 C 88 % 1029,3 hPa 0,0 l/m 30,0 km/h (5 Bft) O-NO 67 0 min 0,000 mm 0,0 UV-I 0 W/m -1,3 C -12,7 C 53,1 km/h (7 Bft) 98,35 %
30.12.2015 18:00 0,5 C 88 % 1029,3 hPa 0,0 l/m 29,6 km/h (5 Bft) O 80 0 min 0,026 mm 0,0 UV-I 0 W/m -1,3 C -12,6 C 45,1 km/h (6 Bft) 99,15 %
30.12.2015 18:05 0,4 C 88 % 1029,3 hPa 0,0 l/m 27,4 km/h (4 Bft) NO 51 0 min 0,000 mm 0,0 UV-I 0 W/m -1,3 C -12,0 C 45,1 km/h (6 Bft) 96,52 %
30.12.2015 18:10 0,3 C 89 % 1029,3 hPa 0,0 l/m 25,1 km/h (4 Bft) O-NO 71 0 min 0,000 mm 0,0 UV-I 0 W/m -1,3 C -11,3 C 35,4 km/h (5 Bft) 97,52 %
30.12.2015 18:15 0,2 C 89 % 1029,2 hPa 0,0 l/m 23,1 km/h (4 Bft) O-NO 59 0 min 0,000 mm 0,0 UV-I 0 W/m -1,4 C -10,7 C 38,6 km/h (5 Bft) 96,40 %
30.12.2015 18:20 0,1 C 89 % 1029,2 hPa 0,0 l/m 22,7 km/h (4 Bft) NO 51 0 min 0,000 mm 0,0 UV-I 0 W/m -1,5 C -10,7 C 37,0 km/h (5 Bft) 97,46 %
30.12.2015 18:25 0,1 C 89 % 1029,3 hPa 0,0 l/m 24,6 km/h (4 Bft) O-NO 61 0 min 0,000 mm 0,0 UV-I 0 W/m -1,5 C -11,4 C 41,8 km/h (6 Bft) 96,52 %
30.12.2015 18:30 0,1 C 89 % 1029,1 hPa 0,0 l/m 26,8 km/h (4 Bft) NO 56 0 min 0,000 mm 0,0 UV-I 0 W/m -1,5 C -12,2 C 43,5 km/h (6 Bft) 97,44 %
30.12.2015 18:35 0,1 C 89 % 1029,0 hPa 0,0 l/m 29,7 km/h (5 Bft) NO 54 0 min 0,000 mm 0,0 UV-I 0 W/m -1,5 C -13,2 C 46,7 km/h (6 Bft) 98,26 %
30.12.2015 18:40 0,0 C 88 % 1028,8 hPa 0,0 l/m 30,7 km/h (5 Bft) O 84 0 min 0,000 mm 0,0 UV-I 0 W/m -1,7 C -13,6 C 46,7 km/h (6 Bft) 98,26 %
30.12.2015 18:45 0,1 C 88 % 1028,7 hPa 0,0 l/m 34,8 km/h (5 Bft) O-NO 66 0 min 0,000 mm 0,0 UV-I 0 W/m -1,6 C -14,6 C 49,9 km/h (6 Bft) 99,21 %
30.12.2015 18:50 -0,1 C 88 % 1028,6 hPa 0,0 l/m 33,4 km/h (5 Bft) O 86 0 min 0,000 mm 0,0 UV-I 0 W/m -1,8 C -14,5 C 51,5 km/h (7 Bft) 97,17 %
30.12.2015 18:55 -0,1 C 88 % 1028,5 hPa 0,0 l/m 34,5 km/h (5 Bft) N 360 0 min 0,000 mm 0,0 UV-I 0 W/m -1,8 C -14,8 C 53,1 km/h (7 Bft) 99,17 %
30.12.2015 19:00 -0,1 C 88 % 1028,5 hPa 0,0 l/m 40,0 km/h (6 Bft) O-NO 68 0 min 0,025 mm 0,0 UV-I 0 W/m -1,8 C -16,1 C 56,3 km/h (7 Bft) 100,00 %
30.12.2015 19:05 -0,1 C 88 % 1028,4 hPa 0,0 l/m 35,6 km/h (5 Bft) O-NO 69 0 min 0,000 mm 0,0 UV-I 0 W/m -1,8 C -15,1 C 53,1 km/h (7 Bft) 100,00 %
30.12.2015 19:10 -0,1 C 88 % 1028,3 hPa 0,0 l/m 36,5 km/h (5 Bft) O-NO 63 0 min 0,000 mm 0,0 UV-I 0 W/m -1,8 C -15,3 C 51,5 km/h (7 Bft) 100,00 %
30.12.2015 19:15 -0,1 C 88 % 1028,2 hPa 0,0 l/m 33,8 km/h (5 Bft) O-NO 67 0 min 0,000 mm 0,0 UV-I 0 W/m -1,8 C -14,6 C 33,8 km/h (5 Bft) 100,00 %
30.12.2015 19:25 -0,2 C 87 % 1028,4 hPa 0,0 l/m 35,1 km/h (5 Bft) NO 55 0 min 0,000 mm 0,0 UV-I 0 W/m -2,1 C -15,1 C 53,1 km/h (7 Bft) 99,72 %
30.12.2015 19:30 -0,2 C 87 % 1028,4 hPa 0,0 l/m 33,5 km/h (5 Bft) NO 49 0 min 0,000 mm 0,0 UV-I 0 W/m -2,1 C -14,7 C 43,5 km/h (6 Bft) 100,00 %
30.12.2015 19:35 -0,3 C 88 % 1028,4 hPa 0,0 l/m 31,1 km/h (5 Bft) NO 49 0 min 0,000 mm 0,0 UV-I 0 W/m -2,0 C -14,2 C 45,1 km/h (6 Bft) 99,19 %
30.12.2015 19:40 -0,3 C 88 % 1028,4 hPa 0,0 l/m 27,4 km/h (4 Bft) NO 34 0 min 0,000 mm 0,0 UV-I 0 W/m -2,0 C -13,0 C 40,2 km/h (6 Bft) 100,00 %
30.12.2015 19:45 -0,4 C 88 % 1028,3 hPa 0,0 l/m 29,0 km/h (5 Bft) NO 50 0 min 0,000 mm 0,0 UV-I 0 W/m -2,1 C -13,7 C 46,7 km/h (6 Bft) 100,00 %
30.12.2015 19:50 -0,4 C 87 % 1028,3 hPa 0,0 l/m 29,5 km/h (5 Bft) O-NO 67 0 min 0,000 mm 0,0 UV-I 0 W/m -2,3 C -13,8 C 43,5 km/h (6 Bft) 100,00 %
30.12.2015 19:55 -0,4 C 87 % 1028,3 hPa 0,0 l/m 29,8 km/h (5 Bft) O-NO 67 0 min 0,000 mm 0,0 UV-I 0 W/m -2,3 C -13,9 C 48,3 km/h (6 Bft) 98,31 %
30.12.2015 20:00 -0,4 C 86 % 1028,3 hPa 0,0 l/m 33,7 km/h (5 Bft) O-NO 57 0 min 0,026 mm 0,0 UV-I 0 W/m -2,4 C -15,0 C 49,9 km/h (6 Bft) 98,26 %
30.12.2015 20:05 -0,5 C 86 % 1028,1 hPa 0,0 l/m 29,7 km/h (5 Bft) O-NO 74 0 min 0,000 mm 0,0 UV-I 0 W/m -2,5 C -14,0 C 45,1 km/h (6 Bft) 98,33 %
30.12.2015 20:10 -0,6 C 86 % 1028,1 hPa 0,0 l/m 27,7 km/h (4 Bft) NO 51 0 min 0,000 mm 0,0 UV-I 0 W/m -2,6 C -13,5 C 40,2 km/h (6 Bft) 98,11 %
30.12.2015 20:25 -0,6 C 85 % 1028,0 hPa 0,0 l/m 29,3 km/h (5 Bft) O 80 0 min 0,000 mm 0,0 UV-I 0 W/m -2,8 C -14,0 C 49,9 km/h (6 Bft) 96,71 %
30.12.2015 20:30 -0,7 C 85 % 1027,9 hPa 0,0 l/m 28,6 km/h (4 Bft) NO 54 0 min 0,000 mm 0,0 UV-I 0 W/m -2,9 C -13,9 C 38,6 km/h (5 Bft) 97,46 %
30.12.2015 20:35 -0,7 C 85 % 1027,8 hPa 0,0 l/m 27,2 km/h (4 Bft) O-NO 61 0 min 0,000 mm 0,0 UV-I 0 W/m -2,9 C -13,5 C 46,7 km/h (6 Bft) 97,46 %
30.12.2015 20:40 -0,7 C 85 % 1027,8 hPa 0,0 l/m 26,4 km/h (4 Bft) O-NO 67 0 min 0,000 mm 0,0 UV-I 0 W/m -2,9 C -13,2 C 43,5 km/h (6 Bft) 99,03 %
30.12.2015 20:45 -0,8 C 85 % 1027,8 hPa 0,0 l/m 28,7 km/h (4 Bft) O-NO 68 0 min 0,000 mm 0,0 UV-I 0 W/m -3,0 C -14,1 C 43,5 km/h (6 Bft) 99,17 %
30.12.2015 20:50 -0,8 C 84 % 1027,8 hPa 0,0 l/m 29,9 km/h (5 Bft) O-NO 67 0 min 0,000 mm 0,0 UV-I 0 W/m -3,2 C -14,5 C 51,5 km/h (7 Bft) 100,00 %
30.12.2015 20:55 -0,8 C 84 % 1027,8 hPa 0,0 l/m 25,9 km/h (4 Bft) NO 53 0 min 0,000 mm 0,0 UV-I 0 W/m -3,2 C -13,1 C 41,8 km/h (6 Bft) 98,25 %
30.12.2015 21:00 -0,8 C 84 % 1027,7 hPa 0,0 l/m 27,4 km/h (4 Bft) O-NO 74 0 min 0,025 mm 0,0 UV-I 0 W/m -3,2 C -13,7 C 41,8 km/h (6 Bft) 97,39 %
30.12.2015 21:05 -0,8 C 84 % 1027,6 hPa 0,0 l/m 28,6 km/h (4 Bft) NO 40 0 min 0,000 mm 0,0 UV-I 0 W/m -3,2 C -14,1 C 48,3 km/h (6 Bft) 100,00 %
30.12.2015 21:10 -0,9 C 84 % 1027,5 hPa 0,0 l/m 28,3 km/h (4 Bft) NO 34 0 min 0,000 mm 0,0 UV-I 0 W/m -3,3 C -14,1 C 40,2 km/h (6 Bft) 100,00 %
30.12.2015 21:15 -0,9 C 84 % 1027,4 hPa 0,0 l/m 26,5 km/h (4 Bft) O 85 0 min 0,000 mm 0,0 UV-I 0 W/m -3,3 C -13,5 C 38,6 km/h (5 Bft) 100,00 %
30.12.2015 21:20 -0,9 C 84 % 1027,4 hPa 0,0 l/m 28,5 km/h (4 Bft) NO 47 0 min 0,000 mm 0,0 UV-I 0 W/m -3,3 C -14,2 C 41,8 km/h (6 Bft) 98,21 %
30.12.2015 21:25 -1,0 C 84 % 1027,4 hPa 0,0 l/m 23,7 km/h (4 Bft) O-NO 67 0 min 0,000 mm 0,0 UV-I 0 W/m -3,4 C -12,6 C 38,6 km/h (5 Bft) 100,00 %
30.12.2015 21:30 -1,0 C 84 % 1027,3 hPa 0,0 l/m 27,4 km/h (4 Bft) O-NO 67 0 min 0,000 mm 0,0 UV-I 0 W/m -3,4 C -14,0 C 46,7 km/h (6 Bft) 100,00 %
30.12.2015 21:40 -1,1 C 83 % 1027,2 hPa 0,0 l/m 27,4 km/h (4 Bft) O-NO 67 0 min 0,000 mm 0,0 UV-I 0 W/m -3,6 C -14,1 C 41,8 km/h (6 Bft) 99,12 %
30.12.2015 21:45 -1,1 C 83 % 1027,2 hPa 0,0 l/m 31,3 km/h (5 Bft) NO 37 0 min 0,000 mm 0,0 UV-I 0 W/m -3,6 C -15,4 C 40,2 km/h (6 Bft) 99,57 %
30.12.2015 21:50 -1,1 C 83 % 1027,1 hPa 0,0 l/m 27,0 km/h (4 Bft) O-NO 74 0 min 0,000 mm 0,0 UV-I 0 W/m -3,6 C -13,9 C 40,2 km/h (6 Bft) 99,19 %
30.12.2015 21:55 -1,2 C 82 % 1027,0 hPa 0,0 l/m 27,0 km/h (4 Bft) O-NO 61 0 min 0,000 mm 0,0 UV-I 0 W/m -3,9 C -14,1 C 48,3 km/h (6 Bft) 99,08 %
30.12.2015 21:58 -1,2 C 83 % 1027,0 hPa 0,0 l/m 26,8 km/h (4 Bft) O-NO 64 0 min 0,000 mm 0,0 UV-I 0 W/m -3,7 C -14,0 C 41,8 km/h (6 Bft) 98,82 %
30.12.2015 21:59 -1,2 C 82 % 1027,0 hPa 0,0 l/m 30,2 km/h (5 Bft) NO 43 0 min 0,000 mm 0,0 UV-I 0 W/m -3,9 C -15,2 C 35,4 km/h (5 Bft) 100,00 %
30.12.2015 22:00 -1,2 C 82 % 1026,9 hPa 0,0 l/m 25,7 km/h (4 Bft) O 82 0 min 0,000 mm 0,0 UV-I 0 W/m -3,9 C -13,6 C 35,4 km/h (5 Bft) 100,00 %
30.12.2015 22:01 -1,2 C 82 % 1026,9 hPa 0,0 l/m 23,8 km/h (4 Bft) NO 40 0 min 0,025 mm 0,0 UV-I 0 W/m -3,9 C -12,9 C 35,4 km/h (5 Bft) 100,00 %
30.12.2015 22:02 -1,2 C 82 % 1026,9 hPa 0,0 l/m 27,1 km/h (4 Bft) NO 51 0 min 0,000 mm 0,0 UV-I 0 W/m -3,9 C -14,1 C 38,6 km/h (5 Bft) 100,00 %
30.12.2015 22:03 -1,2 C 82 % 1026,9 hPa 0,0 l/m 22,8 km/h (4 Bft) O-NO 67 0 min 0,000 mm 0,0 UV-I 0 W/m -3,9 C -12,5 C 32,2 km/h (5 Bft) 100,00 %
30.12.2015 22:05 -1,2 C 82 % 1027,0 hPa 0,0 l/m 27,6 km/h (4 Bft) O-NO 65 0 min 0,000 mm 0,0 UV-I 0 W/m -3,9 C -14,3 C 38,6 km/h (5 Bft) 100,00 %
30.12.2015 22:10 -1,2 C 82 % 1026,8 hPa 0,0 l/m 27,8 km/h (4 Bft) O-NO 71 0 min 0,000 mm 0,0 UV-I 0 W/m -3,9 C -14,4 C 48,3 km/h (6 Bft) 98,35 %
30.12.2015 22:15 -1,2 C 82 % 1027,0 hPa 0,0 l/m 20,9 km/h (4 Bft) NO 49 0 min 0,000 mm 0,0 UV-I 0 W/m -3,9 C -11,6 C 29,0 km/h (5 Bft) 93,18 %
30.12.2015 22:25 -1,2 C 81 % 1026,8 hPa 0,0 l/m 24,1 km/h (4 Bft) NO 55 0 min 0,000 mm 0,0 UV-I 0 W/m -4,0 C -13,0 C 35,4 km/h (5 Bft) 97,12 %
30.12.2015 22:30 -1,2 C 81 % 1026,8 hPa 0,0 l/m 25,3 km/h (4 Bft) O-NO 57 0 min 0,000 mm 0,0 UV-I 0 W/m -4,0 C -13,5 C 35,4 km/h (5 Bft) 97,30 %
30.12.2015 22:35 -1,2 C 81 % 1026,7 hPa 0,0 l/m 27,9 km/h (4 Bft) O-NO 59 0 min 0,000 mm 0,0 UV-I 0 W/m -4,0 C -14,4 C 41,8 km/h (6 Bft) 97,39 %
30.12.2015 22:40 -1,2 C 80 % 1026,6 hPa 0,0 l/m 23,3 km/h (4 Bft) O-NO 58 0 min 0,000 mm 0,0 UV-I 0 W/m -4,2 C -12,7 C 35,4 km/h (5 Bft) 96,77 %
30.12.2015 22:45 -1,3 C 80 % 1026,6 hPa 0,0 l/m 23,9 km/h (4 Bft) O-NO 66 0 min 0,000 mm 0,0 UV-I 0 W/m -4,3 C -13,0 C 40,2 km/h (6 Bft) 96,58 %
30.12.2015 22:50 -1,3 C 80 % 1026,6 hPa 0,0 l/m 24,0 km/h (4 Bft) NO 55 0 min 0,000 mm 0,0 UV-I 0 W/m -4,3 C -13,1 C 33,8 km/h (5 Bft) 98,17 %
30.12.2015 22:55 -1,3 C 80 % 1026,6 hPa 0,0 l/m 22,5 km/h (4 Bft) O 92 0 min 0,000 mm 0,0 UV-I 0 W/m -4,3 C -12,5 C 35,4 km/h (5 Bft) 98,37 %
30.12.2015 23:00 -1,3 C 80 % 1026,5 hPa 0,0 l/m 21,6 km/h (4 Bft) O-NO 57 0 min 0,026 mm 0,0 UV-I 0 W/m -4,3 C -12,1 C 37,0 km/h (5 Bft) 99,15 %
30.12.2015 23:05 -1,4 C 80 % 1026,5 hPa 0,0 l/m 21,4 km/h (4 Bft) O-NO 67 0 min 0,000 mm 0,0 UV-I 0 W/m -4,4 C -12,1 C 32,2 km/h (5 Bft) 100,00 %
30.12.2015 23:10 -1,4 C 80 % 1026,4 hPa 0,0 l/m 20,1 km/h (4 Bft) O-NO 76 0 min 0,000 mm 0,0 UV-I 0 W/m -4,4 C -11,5 C 33,8 km/h (5 Bft) 100,00 %
30.12.2015 23:15 -1,4 C 80 % 1026,4 hPa 0,0 l/m 21,7 km/h (4 Bft) NO 53 0 min 0,000 mm 0,0 UV-I 0 W/m -4,4 C -12,2 C 29,0 km/h (5 Bft) 97,52 %
30.12.2015 23:20 -1,5 C 79 % 1026,3 hPa 0,0 l/m 21,4 km/h (4 Bft) NO 56 0 min 0,000 mm 0,0 UV-I 0 W/m -4,7 C -12,2 C 32,2 km/h (5 Bft) 99,17 %
30.12.2015 23:25 -1,5 C 79 % 1026,3 hPa 0,0 l/m 20,8 km/h (4 Bft) O-NO 78 0 min 0,000 mm 0,0 UV-I 0 W/m -4,7 C -12,0 C 32,2 km/h (5 Bft) 99,00 %
30.12.2015 23:30 -1,5 C 79 % 1026,3 hPa 0,0 l/m 18,4 km/h (3 Bft) O-NO 74 0 min 0,000 mm 0,0 UV-I 0 W/m -4,7 C -10,8 C 27,4 km/h (4 Bft) 100,00 %
30.12.2015 23:35 -1,5 C 79 % 1026,3 hPa 0,0 l/m 21,4 km/h (4 Bft) O-NO 71 0 min 0,000 mm 0,0 UV-I 0 W/m -4,7 C -12,2 C 35,4 km/h (5 Bft) 100,00 %
30.12.2015 23:40 -1,5 C 79 % 1026,2 hPa 0,0 l/m 22,4 km/h (4 Bft) O-NO 65 0 min 0,000 mm 0,0 UV-I 0 W/m -4,7 C -12,7 C 33,8 km/h (5 Bft) 99,08 %
30.12.2015 23:45 -1,6 C 79 % 1026,2 hPa 0,0 l/m 22,9 km/h (4 Bft) NO 51 0 min 0,000 mm 0,0 UV-I 0 W/m -4,8 C -13,0 C 33,8 km/h (5 Bft) 100,00 %
30.12.2015 23:50 -1,6 C 78 % 1026,1 hPa 0,0 l/m 17,9 km/h (3 Bft) O-NO 63 0 min 0,000 mm 0,0 UV-I 0 W/m -4,9 C -10,6 C 24,1 km/h (4 Bft) 99,15 %
30.12.2015 23:55 -1,7 C 78 % 1026,0 hPa 0,0 l/m 19,4 km/h (3 Bft) O-NO 62 0 min 0,000 mm 0,0 UV-I 0 W/m -5,0 C -11,5 C 29,0 km/h (5 Bft) 100,00 %
_ Min-Zeit 23:55 23:50 23:55 - 00:45 - - - - - - 23:55 19:00 00:20 22:15
Minimum _ -1,7 C 78 % 1026,0 hPa - 0,0 km/h (0 Bft) - - - - - - -5,0 C -16,1 C 1,6 km/h (1 Bft) 93,18 %
_ Max-Zeit 14:35 05:30 00:50 00:00 19:00 - - 14:00 14:05 00:00 14:15 00:00 00:00 19:00 00:50
Maximum _ 3,2 C 99 % 1033,1 hPa 0,0 l/m 40,0 km/h
O-NO (6 Bft)
- - 5 min 0,076 mm 0,0 UV-I 166 W/m 1,3 C 1,6 C 56,3 km/h
O-NO (7 Bft)
100,00 %
Durchschnitt _ 1,1 C 91 % 1030,7 hPa #0,0 l/m 20,0 km/h (4 Bft) O-NO - #1:00 h #0,559 mm 0,0 UV-I 67 W/m -0,2 C -7,5 C 30,4 km/h (5 Bft) 98,61 %